• In Hungary
  • List of Countries
  • For 7 days
  • Water Temperature
  • Satellite Maps
  • Weather Map
  • News
  • Weather Widgets
  • user-avatar
    Login

    Hourly Weather Pervomais'ke

    Today, 18 October, Thursday

    Time Temperature Precipitation Wind Pressure Humidity
    00:00 +16°C° 0 mm 2 mps 758 mmHg 60%
    01:00 +16°C° 0 mm 2 mps 758 mmHg 61%
    02:00 +15°C° 0 mm 2 mps 758 mmHg 62%
    03:00 +15°C° 0 mm 2 mps 757 mmHg 63%
    04:00 +14°C° 0 mm 2 mps 757 mmHg 64%
    05:00 +14°C° 0 mm 2 mps 757 mmHg 65%
    06:00 +15°C° 0 mm 2 mps 757 mmHg 63%
    07:00 +16°C° 0 mm 2 mps 757 mmHg 61%
    08:00 +16°C° 0 mm 2 mps 757 mmHg 58%
    09:00 +18°C° 0 mm 2 mps 757 mmHg 52%
    10:00 +20°C° 0 mm 3 mps 757 mmHg 46%
    11:00 +22°C° 0 mm 3 mps 757 mmHg 40%
    12:00 +24°C° 0 mm 3 mps 756 mmHg 38%
    13:00 +24°C° 0 mm 3 mps 756 mmHg 37%
    14:00 +25°C° 0 mm 3 mps 755 mmHg 35%
    15:00 +22°C° 0 mm 3 mps 755 mmHg 39%
    16:00 +21°C° 0 mm 3 mps 755 mmHg 43%
    17:00 +20°C° 0 mm 3 mps 754 mmHg 48%
    18:00 +19°C° 0 mm 3 mps 754 mmHg 50%
    19:00 +18°C° 0 mm 3 mps 754 mmHg 53%
    20:00 +17°C° 0 mm 3 mps 755 mmHg 55%
    21:00 +17°C° 0 mm 3 mps 754 mmHg 56%
    22:00 +16°C° 0 mm 3 mps 754 mmHg 58%
    23:00 +16°C° 0 mm 3 mps 754 mmHg 59%

    Tomorrow, 19 October, Friday

    Time Temperature Precipitation Wind Pressure Humidity
    00:00 +15°C° 0 mm 2 mps 754 mmHg 60%
    01:00 +15°C° 0 mm 2 mps 754 mmHg 61%
    02:00 +14°C° 0 mm 2 mps 754 mmHg 62%
    03:00 +14°C° 0 mm 2 mps 754 mmHg 64%
    04:00 +14°C° 0 mm 2 mps 753 mmHg 65%
    05:00 +13°C° 0 mm 2 mps 753 mmHg 66%
    06:00 +14°C° 0 mm 2 mps 753 mmHg 64%
    07:00 +15°C° 0 mm 2 mps 753 mmHg 61%
    08:00 +15°C° 0 mm 2 mps 753 mmHg 59%
    09:00 +17°C° 0 mm 2 mps 753 mmHg 54%
    10:00 +19°C° 0 mm 2 mps 753 mmHg 49%
    11:00 +20°C° 0 mm 2 mps 753 mmHg 43%
    12:00 +21°C° 0 mm 2 mps 752 mmHg 41%
    13:00 +21°C° 0 mm 2 mps 752 mmHg 39%
    14:00 +23°C° 0 mm 2 mps 752 mmHg 37%
    15:00 +22°C° 0 mm 1 mps 751 mmHg 41%
    16:00 +20°C° 0 mm 1 mps 751 mmHg 45%
    17:00 +17°C° 0 mm 0 mps 751 mmHg 48%
    18:00 +18°C° 0 mm 1 mps 751 mmHg 50%
    19:00 +18°C° 0 mm 1 mps 751 mmHg 51%
    20:00 +16°C° 0 mm 1 mps 751 mmHg 52%
    21:00 +16°C° 0 mm 2 mps 751 mmHg 54%
    22:00 +16°C° 0 mm 2 mps 751 mmHg 55%
    23:00 +15°C° 0 mm 2 mps 751 mmHg 57%

    Day after tomorrow, 20 October, Saturday

    Time Temperature Precipitation Wind Pressure Humidity
    00:00 +15°C° 0 mm 2 mps 751 mmHg 58%
    01:00 +14°C° 0 mm 2 mps 751 mmHg 60%
    02:00 +14°C° 0 mm 2 mps 751 mmHg 61%
    03:00 +14°C° 0 mm 2 mps 751 mmHg 63%
    04:00 +13°C° 0 mm 2 mps 751 mmHg 65%
    05:00 +12°C° 0 mm 3 mps 751 mmHg 67%
    06:00 +13°C° 0 mm 3 mps 751 mmHg 65%
    07:00 +13°C° 0 mm 3 mps 752 mmHg 64%
    08:00 +14°C° 0 mm 3 mps 752 mmHg 63%
    09:00 +15°C° 0 mm 4 mps 752 mmHg 59%
    10:00 +18°C° 0 mm 4 mps 752 mmHg 54%
    11:00 +20°C° 0 mm 4 mps 752 mmHg 50%
    12:00 +20°C° 0 mm 4 mps 752 mmHg 49%
    13:00 +20°C° 0 mm 4 mps 752 mmHg 48%
    14:00 +21°C° 0 mm 4 mps 752 mmHg 48%
    15:00 +19°C° 0 mm 4 mps 752 mmHg 54%
    16:00 +18°C° 0 mm 4 mps 752 mmHg 60%
    17:00 +15°C° 0 mm 4 mps 752 mmHg 67%
    18:00 +15°C° 0 mm 4 mps 753 mmHg 72%
    19:00 +14°C° 0 mm 4 mps 753 mmHg 77%
    20:00 +13°C° 0 mm 4 mps 753 mmHg 82%
    21:00 +12°C° 0 mm 4 mps 753 mmHg 84%
    22:00 +11°C° 0 mm 3 mps 753 mmHg 85%
    23:00 +11°C° 0 mm 3 mps 753 mmHg 87%

    21 October, Sunday

    Time Temperature Precipitation Wind Pressure Humidity
    00:00 +10°C° 0 mm 3 mps 753 mmHg 88%
    01:00 +10°C° 0 mm 3 mps 753 mmHg 88%
    02:00 +10°C° 0 mm 3 mps 753 mmHg 89%
    03:00 +10°C° 0 mm 3 mps 753 mmHg 87%
    04:00 +10°C° 0 mm 3 mps 753 mmHg 86%
    05:00 +10°C° 0 mm 3 mps 753 mmHg 85%
    06:00 +10°C° 0 mm 3 mps 753 mmHg 82%
    07:00 +10°C° 0 mm 3 mps 753 mmHg 79%
    08:00 +11°C° 0 mm 3 mps 753 mmHg 76%
    09:00 +11°C° 0 mm 3 mps 753 mmHg 70%
    10:00 +12°C° 0 mm 3 mps 753 mmHg 65%
    11:00 +13°C° 0 mm 3 mps 753 mmHg 59%
    12:00 +13°C° 0 mm 3 mps 752 mmHg 56%
    13:00 +14°C° 0 mm 3 mps 752 mmHg 53%
    14:00 +14°C° 0 mm 3 mps 752 mmHg 49%
    15:00 +13°C° 0 mm 3 mps 752 mmHg 53%
    16:00 +12°C° 0 mm 3 mps 752 mmHg 57%
    17:00 +11°C° 0 mm 3 mps 752 mmHg 60%
    18:00 +10°C° 0 mm 3 mps 752 mmHg 63%
    19:00 +10°C° 0 mm 3 mps 753 mmHg 66%
    20:00 +9°C° 0 mm 3 mps 753 mmHg 69%
    21:00 +9°C° 0 mm 3 mps 753 mmHg 69%
    22:00 +9°C° 0 mm 3 mps 753 mmHg 70%
    23:00 +9°C° 0 mm 3 mps 753 mmHg 71%

    22 October, Monday

    Time Temperature Precipitation Wind Pressure Humidity
    00:00 +10°C° 0 mm 3 mps 753 mmHg 69%
    01:00 +10°C° 0 mm 3 mps 753 mmHg 68%
    02:00 +10°C° 0 mm 4 mps 753 mmHg 67%
    03:00 +10°C° 0 mm 4 mps 753 mmHg 68%
    04:00 +10°C° 0 mm 4 mps 753 mmHg 70%
    05:00 +10°C° 0 mm 4 mps 753 mmHg 72%
    06:00 +10°C° 0 mm 4 mps 753 mmHg 72%
    07:00 +10°C° 0 mm 4 mps 754 mmHg 73%
    08:00 +9°C° 0 mm 5 mps 754 mmHg 73%
    09:00 +10°C° 0 mm 5 mps 754 mmHg 69%
    10:00 +13°C° 0 mm 5 mps 754 mmHg 65%
    11:00 +14°C° 0 mm 5 mps 754 mmHg 62%
    12:00 +14°C° 0 mm 4 mps 753 mmHg 61%
    13:00 +15°C° 0 mm 4 mps 753 mmHg 61%
    14:00 +15°C° 0 mm 4 mps 753 mmHg 60%
    15:00 +14°C° 0 mm 4 mps 753 mmHg 63%
    16:00 +14°C° 0 mm 4 mps 753 mmHg 65%
    17:00 +13°C° 0 mm 3 mps 753 mmHg 68%
    18:00 +13°C° 0 mm 3 mps 753 mmHg 70%
    19:00 +12°C° 0 mm 3 mps 753 mmHg 72%
    20:00 +12°C° 0 mm 3 mps 753 mmHg 74%
    21:00 +12°C° 0.1 mm 3 mps 752 mmHg 75%
    22:00 +12°C° 0.1 mm 3 mps 752 mmHg 76%
    23:00 +12°C° 0.1 mm 3 mps 752 mmHg 77%

    23 October, Tuesday

    Time Temperature Precipitation Wind Pressure Humidity
    00:00 +12°C° 0.7 mm 3 mps 751 mmHg 79%
    01:00 +11°C° 0.7 mm 3 mps 751 mmHg 82%
    02:00 +11°C° 0.7 mm 3 mps 750 mmHg 84%
    03:00 +11°C° 0.6 mm 4 mps 750 mmHg 84%
    04:00 +11°C° 0.6 mm 4 mps 750 mmHg 85%
    05:00 +11°C° 0.6 mm 4 mps 749 mmHg 86%
    06:00 +11°C° 0.8 mm 4 mps 749 mmHg 84%
    07:00 +11°C° 0.8 mm 4 mps 748 mmHg 83%
    08:00 +11°C° 0.8 mm 4 mps 748 mmHg 82%
    09:00 +11°C° 0.7 mm 4 mps 747 mmHg 79%
    10:00 +12°C° 0.7 mm 4 mps 747 mmHg 77%
    11:00 +12°C° 0.7 mm 4 mps 746 mmHg 74%
    12:00 +12°C° 0.7 mm 3 mps 746 mmHg 75%
    13:00 +12°C° 0.7 mm 3 mps 745 mmHg 76%
    14:00 +12°C° 0.7 mm 3 mps 745 mmHg 77%
    15:00 +11°C° 0.7 mm 3 mps 744 mmHg 80%
    16:00 +12°C° 0.7 mm 2 mps 744 mmHg 83%
    17:00 +12°C° 0.7 mm 2 mps 744 mmHg 86%
    18:00 +11°C° 0.2 mm 3 mps 744 mmHg 87%
    19:00 +10°C° 0.2 mm 3 mps 744 mmHg 88%
    20:00 +10°C° 0.2 mm 4 mps 744 mmHg 89%
    21:00 +8°C° 0.1 mm 4 mps 744 mmHg 88%
    22:00 +8°C° 0.1 mm 5 mps 744 mmHg 87%
    23:00 +7°C° 0.1 mm 5 mps 744 mmHg 86%
    Show more